Content
SEND FEEDBACK

Daily
Averages
Monthly
Summary
United States of America

BAYSIDE, NEW YORK


Home > North America > United States > New York
Elevation: 11 feet     Latitude: 40 46N     Longitude: 073 54W

WEATHER
 
SELECT A DAY
Number of Records: 191,080;   Date Range: 1/1/95 - 7/26/14
 
SHARE

PRINT THIS DATA

[ ← Previous Day ]
WEATHER ALMANAC - APRIL 1, 2013
[ Next Day → ]
[ °C ]   °F
Weather ElementAverageHighLow
Temperature48.8 °F61 °F (12:51 pm)39 °F (11:51 pm)
Dewpoint36.9 °F44.6 °F (1:16 am)14 °F (9:51 pm)
Humidity66.6 %93 % (1:16 am)31 % (9:51 pm)
Barometer29.71 in29.90 in (11:51 pm)29.62 in (1:51 pm)
Wind Speed12.6 mph28.8 mph (4:51 pm)
Wind Gust38 mph (4:51 pm)
Weather ElementAverage
Visibility9.5 mi
Wind DirectionW (268.7 °)

Weather ElementTotal
Precipitation0.01 in
Heating Degree Days15 (Base 65)
Averaged from 30 records on April 1, 2013
WEATHER CONDITIONS BREAKOUT
WIND DIRECTION BREAKOUT
WEATHER BY HOUR - APRIL 1, 2013
[ °C ]   °F
Local TimeTemperatureDewpointHumidityBarometerVisibilityWind DirectionWind SpeedGust SpeedPrecipitationEventsConditions
1:16 AM46.4 °F44.6 °F93 %29.67 in5.0 miWNW (290°)4.6 mphOvercast
1:46 AM46.4 °F44.6 °F93 %29.67 in7.0 miWest (280°)8.1 mphOvercast
1:51 AM46.9 °F44.1 °F90 %29.67 in7.0 miWest (280°)6.9 mphOvercast
2:47 AM48.2 °F42.8 °F82 %29.69 in10.0 miWSW (240°)10.4 mphMostly Cloudy
2:51 AM48.0 °F42.1 °F80 %29.70 in10.0 miWSW (240°)6.9 mphMostly Cloudy
3:03 AM48.2 °F42.8 °F82 %29.69 in10.0 miSW (230°)8.1 mphMostly Cloudy
3:51 AM46.9 °F42.1 °F83 %29.70 in10.0 miSW (230°)6.9 mphScattered Clouds
4:51 AM46.9 °F41.0 °F80 %29.70 in10.0 miSSW (210°)6.9 mphScattered Clouds
5:46 AM46.4 °F42.8 °F87 %29.71 in10.0 miWSW (250°)6.9 mphMostly Cloudy
5:51 AM46.9 °F42.1 °F83 %29.71 in10.0 miWest (260°)11.5 mphMostly Cloudy
5:55 AM46.4 °F42.8 °F87 %29.71 in10.0 miWest (270°)15.0 mph18.4 mphMostly Cloudy
6:18 AM46.4 °F42.8 °F87 %29.71 in10.0 miWSW (250°)6.9 mphScattered Clouds
6:51 AM46.9 °F41.0 °F80 %29.70 in10.0 miWSW (250°)6.9 mphMostly Cloudy
7:51 AM48.9 °F41.0 °F74 %29.70 in10.0 miWSW (250°)9.2 mphScattered Clouds
8:51 AM50.0 °F42.1 °F74 %29.70 in9.0 miSW (220°)8.1 mphScattered Clouds
9:51 AM53.1 °F42.1 °F66 %29.69 in10.0 miWSW (240°)10.4 mphMostly Cloudy
10:51 AM54.0 °F41.0 °F62 %29.69 in10.0 miSSW (210°)13.8 mphOvercast
11:51 AM57.9 °F41.0 °F53 %29.67 in10.0 miSW (230°)16.1 mph23.0 mphMostly Cloudy
12:51 PM61.0 °F37.9 °F42 %29.64 in10.0 miWest (270°)13.8 mph23.0 mphScattered Clouds
1:51 PM61.0 °F34.0 °F36 %29.62 in10.0 miSW (230°)17.3 mph23.0 mphMostly Cloudy
2:51 PM60.1 °F37.9 °F44 %29.62 in10.0 miWNW (290°)19.6 mph33.4 mphMostly Cloudy
3:51 PM57.9 °F34.0 °F41 %29.64 in10.0 miWNW (300°)21.9 mph36.8 mphMostly Cloudy
4:51 PM45.0 °F37.0 °F74 %29.70 in6.0 miNW (320°)28.8 mph38.0 mph0.00 inRainLight Rain
5:51 PM45.0 °F35.1 °F68 %29.73 in10.0 miWNW (300°)11.5 mph0.01 inRainLight Rain
6:51 PM46.9 °F33.1 °F59 %29.74 in10.0 miNW (310°)10.4 mph0.00 inScattered Clouds
7:51 PM46.9 °F33.1 °F59 %29.76 in10.0 miWNW (290°)6.9 mphScattered Clouds
8:51 PM44.6 °F19.4 °F37 %29.82 in10.0 miNNW (340°)19.6 mph27.6 mphScattered Clouds
9:51 PM42.8 °F14.0 °F31 %29.86 in10.0 miNNW (340°)24.2 mph29.9 mphPartly Cloudy
10:51 PM39.9 °F14.0 °F35 %29.89 in10.0 miNW (320°)20.7 mph28.8 mphClear
11:51 PM39.0 °F14.0 °F36 %29.90 in10.0 miNW (320°)18.4 mph25.3 mphClear
Hourly data recorded from KLGA, located miles away from Bayside, New York







STORIES FROM OUR PARTNERS